Weather History for Jonesboro, AR

Change the Weather History Date:

Saturday, December 8, 2012

  Actual Average Record
Temperature  
Mean Temperature 60 °F 41 °F  
Max Temperature 64 °F 50 °F 73 °F (1922)
Min Temperature 55 °F 32 °F 10 °F (1909)
Degree Days  
Heating Degree Days 5 24  
Month to date heating degree days 41 185  
Since 1 July heating degree days 724 835  
Cooling Degree Days 0 0  
Month to date cooling degree days 2 0  
Year to date cooling degree days 2345 1827  
Growing Degree Days 9 (Base 50)    
Moisture  
Dew Point 55 °F    
Average Humidity 86    
Maximum Humidity 93    
Minimum Humidity 78    
Precipitation  
Precipitation 0.27 in 0.19 in 2.17 in (1978)
Month to date precipitation 0.97 1.46  
Year to date precipitation 30.85 44.79  
Snow  
Snow 0.00 in 0.00 in T in (2013)
Month to date snowfall 0.0 0.1  
Since 1 July snowfall 0.0 0.1  
Snow Depth 0.00 in    
Sea Level Pressure  
Sea Level Pressure 29.89 in    
Wind  
Wind Speed 6 mph (ENE)    
Max Wind Speed 16 mph    
Max Gust Speed 20 mph    
Visibility 6 miles    
Events Rain    
T = Trace of Precipitation, MM = Missing Value Source: NWS Daily Summary

Daily Weather History Graph

Daily Weather History Graph

Search for Another Location

Airport:

Trip Planner

Search our weather history database for the weather conditions in past years. The results will help you decide how hot, cold, wet, or windy it might be!

Date:

Astronomy

Dec. 08, 2012 Rise Set
Actual Time 7:00 AM CST 4:48 PM CST
Civil Twilight 6:32 AM CST 5:17 PM CST
Nautical Twilight 6:00 AM CST 5:49 PM CST
Astronomical Twilight 5:29 AM CST 6:20 PM CST
Moon 1:33 AM CST (12/8) 1:11 PM CST (12/8)
Length of Visible Light 10h 44m
Length of Day
9h 48m
Waning Crescent, 28% of the Moon is Illuminated
Dec 8
Waning Crescent
Dec 13
New
Dec 19
First Quarter
Dec 28
Full
Jan 4
Last Quarter

Hourly Weather History & Observations

Time (CST) Temp. Dew Point Humidity Pressure Visibility Wind Dir Wind Speed Gust Speed Precip Events Conditions
12:06 AM 60.8 °F 55.4 °F 82% 29.88 in 7.0 mi WNW 4.6 mph - 0.00 in Rain Light Rain
12:24 AM 60.8 °F 55.4 °F 82% 29.87 in 7.0 mi Calm Calm - 0.00 in   Overcast
12:53 AM 59.0 °F 55.9 °F 90% 29.87 in 6.0 mi South 3.5 mph - 0.00 in   Overcast
1:10 AM 59.0 °F 55.4 °F 88% 29.87 in 5.0 mi South 3.5 mph - 0.00 in Rain Light Rain
1:22 AM 59.0 °F 55.4 °F 88% 29.87 in 6.0 mi Calm Calm - 0.00 in   Overcast
1:40 AM 59.0 °F 55.4 °F 88% 29.87 in 3.0 mi Calm Calm - 0.01 in Rain Light Rain
1:53 AM 59.0 °F 55.9 °F 90% 29.86 in 5.0 mi Calm Calm - 0.01 in Rain Light Rain
2:40 AM 59.0 °F 55.4 °F 88% 29.87 in 2.0 mi West 4.6 mph - 0.09 in Rain Rain
2:53 AM 59.0 °F 57.0 °F 93% 29.86 in 3.0 mi Calm Calm - 0.12 in Rain Light Rain
3:53 AM 59.0 °F 57.0 °F 93% 29.86 in 4.0 mi Calm Calm - 0.01 in Rain Light Rain
4:23 AM 57.2 °F 55.4 °F 94% 29.88 in 1.8 mi WSW 3.5 mph - 0.09 in Rain Heavy Rain
4:32 AM 57.2 °F 55.4 °F 94% 29.87 in 2.0 mi SW 3.5 mph - 0.12 in Rain Rain
4:46 AM 59.0 °F 55.4 °F 88% 29.87 in 6.0 mi South 5.8 mph - 0.13 in Rain Light Rain
4:53 AM 59.0 °F 55.9 °F 90% 29.86 in 6.0 mi SSW 5.8 mph - 0.13 in Rain Light Rain
5:53 AM 57.9 °F 55.9 °F 93% 29.88 in 3.0 mi Calm Calm - 0.00 in   Overcast
6:53 AM 57.0 °F 55.9 °F 96% 29.90 in 3.0 mi Calm Calm - N/A   Overcast
7:25 AM 57.2 °F 55.4 °F 94% 29.91 in 2.0 mi Calm Calm - N/A   Overcast
7:53 AM 57.0 °F 55.9 °F 96% 29.91 in 3.0 mi Calm Calm - N/A   Overcast
8:05 AM 57.2 °F 55.4 °F 94% 29.91 in 2.5 mi Calm Calm - N/A   Overcast
8:32 AM 57.2 °F 55.4 °F 94% 29.92 in 3.0 mi Calm Calm - N/A   Overcast
8:53 AM 59.0 °F 55.9 °F 90% 29.91 in 3.0 mi Calm Calm - N/A   Overcast
9:53 AM 61.0 °F 57.0 °F 87% 29.93 in 5.0 mi ENE 4.6 mph - N/A   Overcast
10:11 AM 60.8 °F 57.2 °F 88% 29.94 in 6.0 mi ENE 8.1 mph - N/A   Mostly Cloudy
10:53 AM 61.0 °F 55.9 °F 83% 29.93 in 8.0 mi East 6.9 mph - N/A   Overcast
11:53 AM 63.0 °F 55.9 °F 78% 29.90 in 10.0 mi East 5.8 mph - N/A   Mostly Cloudy
12:53 PM 63.0 °F 55.0 °F 75% 29.88 in 10.0 mi East 4.6 mph - N/A   Overcast
1:53 PM 63.0 °F 55.0 °F 75% 29.87 in 10.0 mi ENE 5.8 mph - N/A   Overcast
2:32 PM 62.6 °F 55.4 °F 77% 29.87 in 8.0 mi ENE 6.9 mph - N/A   Overcast
2:53 PM 62.1 °F 57.0 °F 84% 29.87 in 7.0 mi ENE 9.2 mph - N/A   Overcast
3:53 PM 62.1 °F 55.9 °F 80% 29.88 in 7.0 mi ENE 6.9 mph - N/A   Overcast
4:08 PM 62.6 °F 55.4 °F 77% 29.88 in 7.0 mi NE 6.9 mph - N/A   Overcast
4:35 PM 62.6 °F 55.4 °F 77% 29.89 in 7.0 mi NE 4.6 mph - N/A   Overcast
4:53 PM 61.0 °F 55.9 °F 83% 29.89 in 7.0 mi NE 8.1 mph - N/A   Overcast
5:12 PM 60.8 °F 55.4 °F 82% 29.89 in 7.0 mi NE 9.2 mph - N/A   Overcast
5:44 PM 60.8 °F 55.4 °F 82% 29.90 in 8.0 mi NE 11.5 mph - N/A   Overcast
5:53 PM 59.0 °F 54.0 °F 83% 29.89 in 8.0 mi NE 12.7 mph - N/A   Overcast
7:04 PM 57.2 °F 53.6 °F 88% 29.91 in 7.0 mi ENE 11.5 mph - N/A   Overcast
7:53 PM 55.0 °F 51.1 °F 86% 29.91 in 7.0 mi ENE 13.8 mph - N/A   Overcast
8:42 PM 55.4 °F 51.8 °F 88% 29.92 in 6.0 mi ENE 11.5 mph - N/A   Overcast
8:53 PM 55.0 °F 52.0 °F 89% 29.92 in 7.0 mi ENE 11.5 mph - N/A   Overcast
9:53 PM 55.0 °F 52.0 °F 89% 29.91 in 6.0 mi ENE 9.2 mph - N/A   Overcast
10:53 PM 55.0 °F 52.0 °F 89% 29.90 in 5.0 mi ENE 8.1 mph - N/A   Overcast
11:42 PM 55.4 °F 51.8 °F 88% 29.88 in 4.0 mi ENE 8.1 mph - N/A   Overcast
11:53 PM 55.0 °F 52.0 °F 89% 29.88 in 4.0 mi ENE 9.2 mph - N/A   Overcast